Cody, WY

3:51 PM MDT on August 16, 2017 (GMT -0600)
Yellowstone Regional

Weather History for KCOD - March, 2014

Change the Weather History Date:

Wednesday, March 5, 2014

  Actual Average Record
Temperature  
Mean Temperature 40 °F -  
Max Temperature 51 °F 44 °F 70 °F (1950)
Min Temperature 30 °F 20 °F -19 °F (1945)
Degree Days  
Heating Degree Days 24    
Moisture  
Dew Point 24 °F    
Average Humidity 49    
Maximum Humidity 69    
Minimum Humidity 35    
Precipitation  
Precipitation 0.01 in - - ()
Sea Level Pressure  
Sea Level Pressure 29.94 in    
Wind  
Wind Speed 11 mph (SW)    
Max Wind Speed 26 mph    
Max Gust Speed 38 mph    
Visibility 10 miles    
Events      
Averages and records for this station are not official NWS values.
T = Trace of Precipitation, MM = Missing Value Source: NWS Daily Summary

Daily Weather History Graph

Daily Weather History Graph

Search for Another Location

Airport or City:

Trip Planner

Search our weather history database for the weather conditions in past years. The results will help you decide how hot, cold, wet, or windy it might be!

Date:

Astronomy

Mar. 05, 2014 Rise Set
Actual Time 6:46 AM MST 6:09 PM MST
Civil Twilight 6:17 AM MST 6:38 PM MST
Nautical Twilight 5:43 AM MST 7:12 PM MST
Astronomical Twilight 5:09 AM MST 7:46 PM MST
Moon 9:02 AM MST (3/5) 11:34 PM MST (3/5)
Length of Visible Light 12h 21m
Length of Day
11h 23m
Waxing Crescent, 24% of the Moon is Illuminated
Mar 5
Waxing Crescent
Mar 8
First Quarter
Mar 16
Full
Mar 23
Last Quarter
Mar 30
New

Hourly Weather History & Observations

Time (MST) Temp. Windchill Dew Point Humidity Pressure Visibility Wind Dir Wind Speed Gust Speed Precip Events Conditions
12:15 AM 32.0 °F 23.6 °F 21.2 °F 64% 29.99 in 10.0 mi SSW 10.4 mph - N/A   Clear
12:35 AM 33.8 °F 23.9 °F 21.2 °F 60% 29.99 in 10.0 mi SSW 15.0 mph - N/A   Clear
12:55 AM 33.8 °F 25.3 °F 21.2 °F 60% 29.98 in 10.0 mi SW 11.5 mph - N/A   Clear
1:15 AM 35.6 °F 29.9 °F 21.2 °F 56% 29.97 in 10.0 mi SW 6.9 mph - N/A   Clear
1:35 AM 30.2 °F 21.3 °F 21.2 °F 69% 29.98 in 10.0 mi SE 10.4 mph - N/A   Clear
1:55 AM 33.8 °F 27.7 °F 21.2 °F 60% 29.98 in 10.0 mi SE 6.9 mph - N/A   Clear
2:15 AM 33.8 °F 30.8 °F 21.2 °F 60% 29.99 in 10.0 mi East 3.5 mph - N/A   Clear
2:35 AM 37.4 °F 32.8 °F 21.2 °F 52% 29.99 in 10.0 mi SW 5.8 mph - N/A   Clear
2:55 AM 35.6 °F 28.6 °F 21.2 °F 56% 29.98 in 10.0 mi SSW 9.2 mph - N/A   Clear
3:15 AM 35.6 °F 28.0 °F 19.4 °F 52% 29.98 in 10.0 mi South 10.4 mph - N/A   Clear
3:35 AM 33.8 °F 27.7 °F 21.2 °F 60% 29.98 in 10.0 mi South 6.9 mph - N/A   Clear
3:55 AM 39.2 °F 30.5 °F 21.2 °F 49% 29.98 in 10.0 mi WSW 16.1 mph 20.7 mph N/A   Clear
4:15 AM 37.4 °F 31.4 °F 21.2 °F 52% 29.98 in 10.0 mi WSW 8.1 mph - N/A   Clear
4:35 AM 41.0 °F 33.5 °F 19.4 °F 42% 29.98 in 10.0 mi West 13.8 mph 27.6 mph N/A   Clear
4:55 AM 42.8 °F 37.0 °F 19.4 °F 39% 29.99 in 10.0 mi West 10.4 mph 27.6 mph N/A   Clear
5:15 AM 41.0 °F 30.5 °F 19.4 °F 42% 29.99 in 10.0 mi West 26.5 mph 38.0 mph 0.01 in   Clear
5:35 AM 41.0 °F 32.2 °F 21.2 °F 45% 29.99 in 10.0 mi West 18.4 mph 27.6 mph 0.01 in   Clear
5:55 AM 41.0 °F 32.8 °F 21.2 °F 45% 30.00 in 10.0 mi WSW 16.1 mph 28.8 mph 0.01 in   Clear
6:15 AM 41.0 °F 34.3 °F 21.2 °F 45% 30.00 in 10.0 mi WSW 11.5 mph 21.9 mph N/A   Clear
6:35 AM 41.0 °F 33.9 °F 19.4 °F 42% 30.00 in 10.0 mi West 12.7 mph 24.2 mph N/A   Clear
6:55 AM 41.0 °F 36.4 °F 21.2 °F 45% 30.00 in 10.0 mi WSW 6.9 mph - N/A   Clear
7:15 AM 41.0 °F 36.4 °F 21.2 °F 45% 30.01 in 10.0 mi WSW 6.9 mph 17.3 mph N/A   Clear
7:35 AM 41.0 °F 35.8 °F 21.2 °F 45% 30.00 in 10.0 mi West 8.1 mph 20.7 mph N/A   Clear
7:55 AM 41.0 °F 37.1 °F 21.2 °F 45% 30.01 in 10.0 mi SSW 5.8 mph - N/A   Clear
8:15 AM 39.2 °F 37.0 °F 23.0 °F 52% 30.01 in 10.0 mi NE 3.5 mph - N/A   Clear
8:35 AM 41.0 °F 33.5 °F 19.4 °F 42% 30.01 in 10.0 mi WSW 13.8 mph 20.7 mph N/A   Clear
8:55 AM 42.8 °F 36.6 °F 21.2 °F 42% 30.01 in 10.0 mi West 11.5 mph 17.3 mph N/A   Partly Cloudy
9:15 AM 42.8 °F 38.6 °F 21.2 °F 42% 30.01 in 10.0 mi SW 6.9 mph - N/A   Clear
9:35 AM 39.2 °F 32.0 °F 24.8 °F 56% 30.01 in 10.0 mi South 11.5 mph - N/A   Clear
9:55 AM 41.0 °F 37.1 °F 23.0 °F 49% 30.02 in 10.0 mi SSW 5.8 mph - N/A   Clear
10:15 AM 41.0 °F 38.0 °F 23.0 °F 49% 30.01 in 10.0 mi South 4.6 mph - N/A   Clear
10:35 AM 41.0 °F 34.7 °F 24.8 °F 53% 29.99 in 10.0 mi SW 10.4 mph - N/A   Clear
10:55 AM 44.6 °F 38.8 °F 21.2 °F 39% 29.99 in 10.0 mi WSW 11.5 mph - N/A   Clear
11:15 AM 44.6 °F 40.7 °F 21.2 °F 39% 29.99 in 10.0 mi SW 6.9 mph - N/A   Clear
11:35 AM 42.8 °F 39.3 °F 24.8 °F 49% 29.98 in 10.0 mi South 5.8 mph - N/A   Clear
11:55 AM 41.0 °F 33.5 °F 26.6 °F 57% 29.97 in 10.0 mi SSE 13.8 mph - N/A   Clear
12:15 PM 42.8 °F 37.0 °F 24.8 °F 49% 29.96 in 10.0 mi SSE 10.4 mph - N/A   Clear
12:35 PM 42.8 °F 36.2 °F 26.6 °F 53% 29.95 in 10.0 mi South 12.7 mph - N/A   Clear
12:55 PM 44.6 °F 38.8 °F 26.6 °F 49% 29.94 in 10.0 mi South 11.5 mph - N/A   Clear
1:15 PM 44.6 °F 37.8 °F 26.6 °F 49% 29.93 in 10.0 mi SSE 15.0 mph - N/A   Scattered Clouds
1:35 PM 44.6 °F 38.8 °F 26.6 °F 49% 29.92 in 10.0 mi South 11.5 mph - N/A   Partly Cloudy
1:55 PM 44.6 °F 39.7 °F 28.4 °F 53% 29.91 in 10.0 mi SE 9.2 mph - N/A   Scattered Clouds
2:15 PM 44.6 °F 40.2 °F 28.4 °F 53% 29.90 in 10.0 mi South 8.1 mph - N/A   Partly Cloudy
2:35 PM 50.0 °F - 24.8 °F 37% 29.89 in 10.0 mi WSW 8.1 mph 17.3 mph N/A   Clear
2:55 PM 51.8 °F - 24.8 °F 35% 29.88 in 10.0 mi SW 13.8 mph 19.6 mph N/A   Clear
3:15 PM 46.4 °F 40.7 °F 28.4 °F 50% 29.87 in 10.0 mi South 12.7 mph - N/A   Clear
3:35 PM 42.8 °F 35.4 °F 28.4 °F 57% 29.87 in 10.0 mi South 15.0 mph - N/A   Scattered Clouds
3:55 PM 42.8 °F 35.1 °F 28.4 °F 57% 29.87 in 10.0 mi SSE 16.1 mph 20.7 mph N/A   Overcast
4:15 PM 42.8 °F 35.4 °F 28.4 °F 57% 29.86 in 10.0 mi SSE 15.0 mph 23.0 mph N/A   Overcast
4:35 PM 42.8 °F 36.2 °F 28.4 °F 57% 29.86 in 10.0 mi South 12.7 mph - N/A   Mostly Cloudy
4:55 PM 46.4 °F 41.9 °F 28.4 °F 50% 29.87 in 10.0 mi SW 9.2 mph - N/A   Scattered Clouds
5:15 PM 50.0 °F - 26.6 °F 40% 29.88 in 10.0 mi West 11.5 mph - N/A   Mostly Cloudy
5:35 PM 48.2 °F - 23.0 °F 37% 29.87 in 10.0 mi West 19.6 mph 29.9 mph N/A   Mostly Cloudy
5:55 PM 48.2 °F - 24.8 °F 40% 29.88 in 10.0 mi WSW 15.0 mph 23.0 mph N/A   Partly Cloudy
6:15 PM 46.4 °F 40.4 °F 24.8 °F 43% 29.88 in 10.0 mi WNW 13.8 mph 24.2 mph N/A   Scattered Clouds
6:35 PM 46.4 °F 40.4 °F 26.6 °F 46% 29.87 in 10.0 mi West 13.8 mph 26.5 mph N/A   Mostly Cloudy
6:55 PM 46.4 °F 40.4 °F 26.6 °F 46% 29.88 in 10.0 mi West 13.8 mph 26.5 mph N/A   Mostly Cloudy
7:15 PM 46.4 °F 38.7 °F 26.6 °F 46% 29.88 in 10.0 mi West 20.7 mph 34.5 mph N/A   Partly Cloudy
7:35 PM 46.4 °F 40.1 °F 26.6 °F 46% 29.88 in 10.0 mi West 15.0 mph 25.3 mph N/A   Mostly Cloudy
7:55 PM 46.4 °F 42.4 °F 26.6 °F 46% 29.88 in 10.0 mi West 8.1 mph 23.0 mph N/A   Overcast
8:15 PM 44.6 °F 40.7 °F 26.6 °F 49% 29.88 in 10.0 mi South 6.9 mph 17.3 mph N/A   Overcast
8:35 PM 42.8 °F 38.6 °F 26.6 °F 53% 29.88 in 10.0 mi South 6.9 mph - N/A   Overcast
8:55 PM 42.8 °F 38.0 °F 28.4 °F 57% 29.88 in 10.0 mi South 8.1 mph - N/A   Overcast
9:15 PM 44.6 °F 40.7 °F 28.4 °F 53% 29.88 in 10.0 mi NW 6.9 mph - N/A   Partly Cloudy
9:35 PM 46.4 °F 40.1 °F 26.6 °F 46% 29.87 in 10.0 mi WSW 15.0 mph 20.7 mph N/A   Clear
9:55 PM 42.8 °F 35.8 °F 26.6 °F 53% 29.86 in 10.0 mi SSW 13.8 mph 18.4 mph N/A   Clear
10:15 PM 44.6 °F 36.9 °F 28.4 °F 53% 29.87 in 10.0 mi SW 18.4 mph - N/A   Clear
10:35 PM 44.6 °F 37.4 °F 26.6 °F 49% 29.87 in 10.0 mi SW 16.1 mph - N/A   Clear
10:55 PM 44.6 °F 37.8 °F 28.4 °F 53% 29.86 in 10.0 mi SW 15.0 mph - N/A   Clear
11:15 PM 44.6 °F 36.9 °F 28.4 °F 53% 29.85 in 10.0 mi SSW 18.4 mph - N/A   Partly Cloudy
11:35 PM 46.4 °F 40.4 °F 28.4 °F 50% 29.84 in 10.0 mi SSW 13.8 mph 26.5 mph N/A   Clear
11:55 PM 46.4 °F 44.3 °F 28.4 °F 50% 29.84 in 10.0 mi South 4.6 mph - N/A   Scattered Clouds